Find Telstar 18 Vantage

NORAD ID: 43611 Int'l Des: 2018-069 Owner: TSKY Country: CA operational
HEOCIRCULARGSOGEO

Live Position

Loading 3D Globe...

About Telstar 18 Vantage

Description loading...

Upcoming Passes

Passes for default location (London). Set your location on the main map for personalized predictions.

Altitude History

Loading altitude history...

Two-Line Element Set

1 43611U 18069A 26104.44697817 -.00000289 00000-0 00000+0 0 9997
2 43611 0.0188 259.7458 0001932 118.3070 123.4982 1.00271359 28006
Epoch: Apr 14, 2026 • Age: 7 hours

Current Status

Altitude 35791.0 km
Velocity 3.07 km/s
Sub-Earth Point 0.01°N, 137.99°E
Launch Date Sep 10, 2018
Age 7.5 years
Type other

Technical Details

Classification Payload
Mass 7060.00 kg
Dry Mass 2000.00 kg
Total Mass 7060.00 kg
Length 8.90 m
Diameter 6.90 m
Span 26.10 m
Shape Box + 2 panels
Manufacturer SSLMAX
Bus Type LS-1300
Phase Status In Orbit
Owner/State TSKY/CA

Most Searched